Satellite: HUBBLE
Catalog number: 20580
Epoch time:      06172.95269636
Element set:    0640
Inclination:      028.4683 deg
RA of node:       018.8212 deg
Eccentricity:    0.0004026
Arg of perigee:   228.8099 deg
Mean anomaly:     131.2146 deg
Mean motion:   15.00055276 rev/day
Decay rate:       4.37e-06 rev/day^2
Epoch rev:           68581
Checksum:              290

Satellite: UARS
Catalog number: 21701
Epoch time:      06172.97644644
Element set:    0800
Inclination:      056.9786 deg
RA of node:       071.7953 deg
Eccentricity:    0.0101006
Arg of perigee:   215.4960 deg
Mean anomaly:     143.9348 deg
Mean motion:   15.43802330 rev/day
Decay rate:      2.131e-05 rev/day^2
Epoch rev:           81004
Checksum:              276

Satellite: PO-34
Catalog number: 25520
Epoch time:      06172.82252734
Element set:    0498
Inclination:      028.4579 deg
RA of node:       000.1367 deg
Eccentricity:    0.0005239
Arg of perigee:   287.5196 deg
Mean anomaly:     072.4826 deg
Mean motion:   15.16734800 rev/day
Decay rate:       5.69e-06 rev/day^2
Epoch rev:           42275
Checksum:              314

Satellite: ISS
Catalog number: 25544
Epoch time:      06173.74530093
Element set:     159
Inclination:      051.6295 deg
RA of node:       158.8512 deg
Eccentricity:    0.0010083
Arg of perigee:   355.3496 deg
Mean anomaly:     001.9348 deg
Mean motion:   15.75809987 rev/day
Decay rate:      5.085e-05 rev/day^2
Epoch rev:           43403
Checksum:              312

Satellite: OO-38
Catalog number: 26063
Epoch time:      06173.72881767
Element set:     648
Inclination:      100.1890 deg
RA of node:       105.7662 deg
Eccentricity:    0.0037314
Arg of perigee:   091.4881 deg
Mean anomaly:     269.0583 deg
Mean motion:   14.35769191 rev/day
Decay rate:        7.0e-08 rev/day^2
Epoch rev:           33546
Checksum:              323

Satellite: NO-45
Catalog number: 26932
Epoch time:      06173.82209960
Element set:     344
Inclination:      067.0529 deg
RA of node:       352.8735 deg
Eccentricity:    0.0008771
Arg of perigee:   254.4464 deg
Mean anomaly:     105.5669 deg
Mean motion:   14.29527906 rev/day
Decay rate:       -7.0e-07 rev/day^2
Epoch rev:           24677
Checksum:              331

Satellite: UWE-1
Catalog number: 28892
Epoch time:      06173.75039304
Element set:     482
Inclination:      098.1627 deg
RA of node:       071.8776 deg
Eccentricity:    0.0017636
Arg of perigee:   150.4022 deg
Mean anomaly:     209.8190 deg
Mean motion:   14.59364591 rev/day
Decay rate:        6.4e-07 rev/day^2
Epoch rev:            3478
Checksum:              317

Satellite: CO-58
Catalog number: 28895
Epoch time:      06173.74135002
Element set:     465
Inclination:      098.1656 deg
RA of node:       071.9510 deg
Eccentricity:    0.0018110
Arg of perigee:   150.2584 deg
Mean anomaly:     209.9667 deg
Mean motion:   14.59417106 rev/day
Decay rate:       -7.3e-07 rev/day^2
Epoch rev:            3466
Checksum:              311

Satellite: NCUBE2
Catalog number: 28897
Epoch time:      06172.62117913
Element set:    0084
Inclination:      098.1647 deg
RA of node:       070.8368 deg
Eccentricity:    0.0017066
Arg of perigee:   156.3224 deg
Mean anomaly:     203.8752 deg
Mean motion:   14.59572867 rev/day
Decay rate:       1.53e-06 rev/day^2
Epoch rev:           02677
Checksum:              325

/EX




----
Via the keps mailing list at AMSAT.ORG courtesy of AMSAT-NA.
To unsubscribe, send "unsubscribe keps" to Majordomo@amsat.org

--- ViaMAIL!/WC v1.60d
 * Origin: Chowdanet (401-724-4410) telnet://chowdanet.com  (1:323/120)